Weather in Krasnopolyanskoye

Russia / Kaliningrad Oblast     54°35′59″N   21°57′55″E
temp.,
°C
wind,
m/s
gust,
m/s
humid.,
%
clouds,
%
prec.,
mm/h
press.,
hPa
HPBL,
m
17 april, sat
sat1723:00+8ne4119061 0.0 1018391
02:00+5ne399614 0.0 1018220
05:00+5ne389891 0.0 1019193
08:00+8ene369199 0.0 1020290
11:00+13ene457284 0.1 10191076
14:00+13ne4569100 0.3 10201275
17:00+13ene477584 0.4 1019557
20:00+9ene37915 0.7 1020137
18 april, sun
sun1823:00+7ene379533 0.1 1021133
02:00+6ene3595100 0.1 1021101
05:00+6ene389695 0.0 1021180
08:00+9ene388977 0.0 1021335
11:00+14ene576989 0.0 10201107
14:00+16ene566199 0.0 10201452
17:00+14ene3772100 0.1 1020244
20:00+12ene397799 0.3 1021207
19 april, mon
mon1923:00+11ene3582100 0.1 1021134
02:00+10ese238587 0.1 102253
05:00+8e229133 0.0 102243
08:00+10ene358050 0.0 1022254
11:00+13ene56598 0.0 10211080
14:00+14e7751100 0.1 10212096
17:00+12e59637 0.0 10211442
20:00+9e4969100 0.1 1021626
20 april, tue
tue2023:00+8e2472100 0.0 1021143
02:00+8ne2274100 0.0 102061
05:00+7ne2682100 0.0 1019192
08:00+9ene478099 0.3 1018357
11:00+8ene4676100 0.1 1016636
14:00+9ne4469100 0.2 1015923
17:00+9nne3466100 0.0 10141013
20:00+7nne2479100 0.2 1013114
21 april, wed
wed2123:00+7nnw2382100 0.1 101285
02:00+6nw2487100 0.3 1011105
05:00+5wnw3892100 0.4 1010291
08:00+7wnw598486 0.6 1010449
11:00+11wnw685748 0.1 10101651
14:00+10w7107292 0.8 10101199
17:00+11w6116824 0.5 10101441
20:00+6w612720 0.9 1011922